Home   Weather   Vejle   Past weeks

Flag for Denmark Past Weather in Vejle, Denmark — Yesterday and Last 2 Weeks

Now
61 °F

Cool.


Feels Like: 61 °F
Forecast: 52 / 70 °F
Wind: 7 mph from Southeast

Location: Billund Lufthavn

Current Time: May 28, 2017 at 4:46:58 am

Latest Report: May 28, 2017 at 4:20 am


Visibility: N/A

Pressure: 30.01 "Hg

Humidity: 77%

Dew Point: 54 °F

Location of VejleLocation

Past Weather in Vejle — Graph

°F

Vejle Temperature Yesterday

Maximum temperature yesterday: 79 °F (at 1:50 pm)
Minimum temperature yesterday: 46 °F (at 4:20 am)
Average temperature yesterday: 66 °F

High & Low Weather Summary for the Past Weeks

 TemperatureHumidityPressure
High79 °F (May 27, 1:50 pm)100% (May 13, 9:50 pm)30.36 "Hg (May 13, 9:50 pm)
Low34 °F (May 21, 4:20 am)34% (May 27, 2:50 pm)29.77 "Hg (May 13, 3:20 am)
Average58 °F77%30.09 "Hg
* Reported May 13 3:20 am — May 28 3:20 am, Vejle. Weather by CustomWeather, © 2017

Note: Actual official high and low records may vary slightly from our data, if they occured in-between our weather recording intervals... More about our weather records

Advertising

Vejle Weather History for the Previous 24 Hours

Scroll right to see more
 ConditionsComfort  
Time TempWeatherWind HumidityBarometerVisibility
3:20 am
Sun, May 28
61 °FCool.6 mph77%30.01 "HgN/A
2:20 am61 °FCool.6 mph77%30.04 "HgN/A
1:50 am61 °FCool.7 mph77%30.04 "HgN/A
1:20 am61 °FCool.7 mph77%30.04 "HgN/A
12:50 am63 °FMild.6 mph73%30.04 "HgN/A
12:20 am63 °FMild.7 mph73%30.07 "HgN/A
11:50 pm
Sat, May 27
63 °FMild.7 mph73%30.07 "HgN/A
11:20 pm64 °FMild.7 mph68%30.07 "HgN/A
10:50 pm66 °FMild.7 mph68%30.07 "HgN/A
10:20 pm66 °FMild.8 mph68%30.07 "HgN/A
9:50 pm68 °FMild.7 mph64%30.07 "HgN/A
9:20 pm70 °FMild.8 mph60%30.07 "HgN/A
8:50 pm72 °FMild.8 mph61%30.07 "HgN/A
8:20 pm72 °FMild.12 mph61%30.07 "HgN/A
7:50 pm73 °FMild.9 mph57%30.09 "HgN/A
7:20 pm73 °FMild.12 mph57%30.09 "HgN/A
6:50 pm75 °FMild.10 mph54%30.09 "HgN/A
6:20 pm77 °FWarm.10 mph51%30.09 "HgN/A
5:50 pm77 °FWarm.10 mph44%30.09 "HgN/A
5:20 pm77 °FWarm.12 mph47%30.12 "HgN/A
4:50 pm77 °FWarm.10 mph47%30.12 "HgN/A
3:50 pm79 °FWarm.12 mph51%30.12 "HgN/A
3:20 pm79 °FWarm.9 mph48%30.12 "HgN/A
2:50 pm79 °FPleasantly warm.7 mph34%30.12 "HgN/A
2:20 pm77 °FWarm.8 mph42%30.15 "HgN/A
1:50 pm79 °FPleasantly warm.7 mph39%30.15 "HgN/A
1:20 pm77 °FPleasantly warm.8 mph39%30.18 "HgN/A
12:50 pm77 °FWarm.7 mph42%30.18 "HgN/A
12:20 pm75 °FMild.7 mph47%30.18 "HgN/A
11:50 am75 °FMild.7 mph50%30.18 "HgN/A
11:20 am75 °FMild.9 mph50%30.18 "HgN/A
10:50 am73 °FMild.8 mph57%30.18 "HgN/A
10:20 am73 °FMild.9 mph57%30.18 "HgN/A
9:50 am72 °FMild.6 mph61%30.18 "HgN/A
9:20 am72 °FMild.8 mph57%30.18 "HgN/A
8:50 am68 °FMild.8 mph64%30.18 "HgN/A
8:20 am66 °FMild.7 mph73%30.18 "HgN/A
7:50 am63 °FMild.5 mph83%30.18 "HgN/A
6:50 am57 °FCool.2 mph88%30.18 "HgN/A
6:20 am54 °FCool.3 mph94%30.18 "HgN/A
5:50 am54 °FFog.3 mph88%30.18 "HgN/A
5:20 am50 °FFog.2 mph88%30.18 "HgN/A
4:50 am48 °FLight fog.2 mph94%30.18 "Hg4 mi
4:20 am46 °FLight fog.1 mph93%30.18 "HgN/A
Weather by CustomWeather, © 2017

See weather overviewHow to use our weather pages